{"data":{"norad_id":66069,"intl_designator":"2025-235M","name":"STARLINK-35279","alt_names":[],"object_type":"PAYLOAD","status":"ACTIVE","operator":null,"country":"US","launch_date":"2025-10-19","launch_site_code":"AFETR","launch_vehicle":null,"mission":null,"orbit_class":"UNKNOWN","rcs_meters":null,"size_class":null,"mass_kg":null,"dimensions":null,"purposes":["comms"],"wikipedia_slug":null,"has_3d_model":false,"image_url":null,"decayed_at":null,"tle_current":{"epoch":"2026-05-24T17:13:23.935296Z","epoch_age_seconds":99135,"freshness":"FRESH","line1":"1 66069U 25235M   26144.71763814  .00025138  00000+0  85843-3 0  9997","line2":"2 66069  53.1590 251.9878 0001048  82.4886 277.6234 15.30183135 34560","mean_motion":15.30183135,"eccentricity":0.0001048,"inclination_deg":53.159,"raan_deg":251.9878,"arg_perigee_deg":82.4886,"mean_anomaly_deg":277.6234,"bstar":0.00085843,"rev_number":3456,"period_min":94.106382893836,"perigee_km":474.54718915767,"apogee_km":475.9836623061,"semimajor_km":6853.4024257319,"source":"CELESTRAK","updated_at":"2026-05-25T13:38:21.022403Z"}}}